"2010-11-01 00:00:00",296941,0.06,357,15.07,0.133,10.87,104.7776,11.5,12.35,28.4,0,110.3,13.35,12.30,319.0
"2010-11-01 00:00:30",296942,-0.113,1.399,23.97,0.043,11.15,104.787,11.53,12.36,28.56,0,110.3,13.35,12.32,323.4
"2010-11-01 00:01:00",296943,-0.115,15.17,24.69,0.044,11.28,104.786,11.52,12.36,28.63,0,110.3,13.35,12.32,337.2
"2010-11-01 00:01:30",296944,-0.11,25.92,11.73,0.044,11.57,104.7893,11.53,12.36,28.65,0,110.4,13.35,12.33,347.9
"2010-11-01 00:02:00",296945,-0.114,27.1,35.89,0.034,11.85,104.7945,11.55,12.36,28.66,0,110.4,13.35,12.34,349.1
"2010-11-01 00:02:30",296946,-0.127,6.58,36.89,0.021,12.12,104.7955,11.55,12.39,28.75,0,110.4,13.35,12.34,328.6
"2010-11-01 00:03:00",296947,-0.106,358.5,17.21,0.04,12.21,104.7944,11.55,12.39,28.75,0,110.3,13.35,12.34,320.5
"2010-11-01 00:03:30",296948,-0.026,5.581,24.68,0.09,12.32,104.7876,11.53,12.36,28.76,0,110.3,13.35,12.32,327.6
"2010-11-01 00:04:00",296949,1.731,1.464,18.59,1.442,15.03,104.7761,11.5,12.57,28.98,0,110.3,13.31,12.29,323.5
"2010-11-01 00:04:30",296950,2.073,25.82,10.44,1.304,15.08,104.7716,11.49,12.52,28.93,0,110.3,13.31,12.28,347.8
"2010-11-01 00:05:00",296951,0.436,7.187,13.91,0.319,11.75,104.7716,11.49,12.36,28.75,0,110.3,13.35,12.28,329.2
"2010-11-01 00:05:30",296952,0.361,7.977,18.31,0.289,11.29,104.7716,11.49,12.36,28.83,0,110.3,13.35,12.28,330.0
"2010-11-01 00:06:00",296953,1.488,3.092,18.99,1.544,13.13,104.7716,11.49,12.51,28.97,0,110.3,13.31,12.28,325.1
"2010-11-01 00:06:30",296954,0.62,0.248,9.21,0.161,11.31,104.7716,11.49,12.44,28.88,0,110.3,13.35,12.28,322.2
"2010-11-01 00:07:00",296955,1.522,359.1,9.77,1.211,12.07,104.7716,11.49,12.34,28.67,0,110.3,13.31,12.28,321.1
"2010-11-01 00:07:30",296956,1.563,11.93,16.65,1.324,12.96,104.771,11.49,12.48,28.75,0,110.3,13.31,12.28,333.9
"2010-11-01 00:08:00",296957,0.312,5.761,18.23,0.175,10.41,104.7682,11.48,12.33,28.65,0,110.3,13.35,12.27,327.8
"2010-11-01 00:08:30",296958,0.353,9.45,14.53,0.299,10.29,104.769,11.48,12.34,28.67,0,110.3,13.35,12.27,331.5
"2010-11-01 00:09:00",296959,0.512,11.84,10.67,0.201,10.44,104.7704,11.48,12.32,28.73,0,110.3,13.35,12.28,333.8
"2010-11-01 00:09:30",296960,0.453,9.83,9.84,0.324,10.77,104.7668,11.48,12.31,28.79,0,110.3,13.35,12.27,331.8
"2010-11-01 00:10:00",296961,0.472,11.92,14.86,0.244,11.16,104.76,11.46,12.32,28.71,0,110.3,13.35,12.25,333.9
"2010-11-01 00:10:30",296962,0.557,10.98,11.05,0.189,11.42,104.7555,11.45,12.32,28.85,0,110.3,13.36,12.24,333.0
"2010-11-01 00:11:00",296963,0.609,21.54,8.36,0.206,11.7,104.7397,11.41,12.33,29.03,0,110.3,13.36,12.20,343.5
"2010-11-01 00:11:30",296964,1.751,27.98,7.55,1.369,14.35,104.7377,11.4,12.53,29.31,0,110.3,13.32,12.19,350.0
"2010-11-01 00:12:00",296965,1.578,55.05,30.78,1.371,14.49,104.7374,11.4,12.58,29.64,0,110.3,13.33,12.19,17.0
"2010-11-01 00:12:30",296966,1.294,41.51,17.17,1.254,12.81,104.7115,11.33,12.29,29.79,0,110.3,13.33,12.13,3.5
"2010-11-01 00:13:00",296967,0.59,49.38,19.71,0.273,10.99,104.7033,11.31,12.29,29.97,0,110.3,13.36,12.10,11.4
"2010-11-01 00:13:30",296968,1.762,45.98,7.493,1.374,12.64,104.6788,11.25,12.34,30.32,0,110.3,13.33,12.04,8.0
"2010-11-01 00:14:00",296969,1.255,65.42,11.57,0.794,11.55,104.67,11.23,12.34,30.42,0,110.3,13.33,12.02,27.4
"2010-11-01 00:14:30",296970,1.656,55.6,7.724,0.555,10.59,104.6667,11.22,12.17,30.16,0,110.3,13.33,12.01,17.6
"2010-11-01 00:15:00",296971,1.578,46.45,11.73,0.925,11.71,104.6447,11.16,12.3,30.41,0,110.3,13.33,11.95,8.5
"2010-11-01 00:15:30",296972,2.087,50.62,12.95,1.076,11.93,104.6365,11.14,12.12,30.27,0,110.3,13.33,11.93,12.6
"2010-11-01 00:16:00",296973,1.676,68.75,6.339,0.134,10.84,104.6386,11.15,12.11,30.08,0,110.3,13.36,11.94,30.8
"2010-11-01 00:16:30",296974,2.313,57.34,7.097,0.354,11.06,104.6395,11.15,12.1,29.97,0,110.3,13.36,11.94,19.3
"2010-11-01 00:17:00",296975,2.999,57.52,7.181,0.915,13.27,104.6439,11.16,12.25,30.34,0,110.3,13.33,11.95,19.5
"2010-11-01 00:17:30",296976,3.433,102.2,15.92,1.296,15.03,104.6454,11.16,12.36,30.77,0,110.2,13.33,11.96,64.2
"2010-11-01 00:18:00",296977,2.246,99.4,8.06,1.122,12.92,104.6468,11.17,12.07,30.5,0,110.3,13.33,11.96,61.4
"2010-11-01 00:18:30",296978,1.575,109.7,6.309,0.299,11.2,104.6498,11.18,12.06,30.53,0,110.3,13.36,11.97,71.7
"2010-11-01 00:19:00",296979,1.68,101.9,19.84,1.014,12.05,104.6528,11.18,12.08,30.62,0,110.3,13.33,11.98,63.9
"2010-11-01 00:19:30",296980,1.814,81.7,10.09,1.32,12.9,104.6464,11.17,12.2,30.77,0,110.3,13.33,11.96,43.7
"2010-11-01 00:20:00",296981,0.635,67.34,12.06,0.152,10.81,104.648,11.17,12.04,30.63,0,110.3,13.36,11.96,29.3
"2010-11-01 00:20:30",296982,1.789,26.53,23.48,1.322,12.85,104.6503,11.18,12.18,30.31,0,110.3,13.33,11.97,348.5
"2010-11-01 00:21:00",296983,0.366,27.22,16.76,0.526,11.18,104.6684,11.22,12.16,29.77,0,110.3,13.36,12.02,349.2
"2010-11-01 00:21:30",296984,1.044,54.59,6.116,0.186,10.46,104.6704,11.23,12.05,29.81,0,110.3,13.36,12.02,16.6
"2010-11-01 00:22:00",296985,1.261,40.42,8.95,0.143,10.58,104.6707,11.23,12.06,30.03,0,110.3,13.36,12.02,2.4
"2010-11-01 00:22:30",296986,1.555,36.19,17,0.269,11.08,104.6716,11.23,12.07,29.65,0,110.3,13.36,12.02,358.2
"2010-11-01 00:23:00",296987,1.504,67.75,18.12,0.367,11.42,104.6716,11.23,12.08,30.15,0,110.3,13.36,12.02,29.8
"2010-11-01 00:23:30",296988,3.235,93.9,8.02,1.33,14.56,104.6716,11.23,12.35,30.85,0,110.2,13.33,12.02,55.9
"2010-11-01 00:24:00",296989,3.055,91.7,8.41,1.464,14.52,104.6716,11.23,12.2,30.99,0,110.2,13.33,12.02,53.7
"2010-11-01 00:24:30",296990,1.169,101.8,11.02,0.246,11.46,104.6646,11.21,12.06,30.96,0,110.2,13.36,12.01,63.8
"2010-11-01 00:25:00",296991,1.276,51.71,14.85,0.203,11.04,104.6581,11.2,12.09,30.59,0,110.2,13.36,11.99,13.7
"2010-11-01 00:25:30",296992,1.923,348.1,36.26,1.127,13,104.6592,11.2,12.13,30.48,0,110.2,13.33,11.99,310.1
"2010-11-01 00:26:00",296993,0.545,21.24,23.25,0.674,11.77,104.6677,11.22,12.18,30.01,0,110.2,13.36,12.01,343.2
"2010-11-01 00:26:30",296994,1.423,96.3,19.42,1.099,11.3,104.6716,11.23,12.05,30.39,0,110.2,13.33,12.02,58.3
"2010-11-01 00:27:00",296995,2.378,120.6,13.31,1.262,12.52,104.6643,11.21,12.24,30.78,0,110.2,13.33,12.00,82.6
"2010-11-01 00:27:30",296996,1.886,108.1,8.86,0.879,10.98,104.6525,11.18,12.04,30.89,0,110.2,13.33,11.97,70.1
"2010-11-01 00:28:00",296997,1.096,89,13.64,0.294,10.66,104.6378,11.15,12.03,30.8,0,110.2,13.37,11.94,51.0
"2010-11-01 00:28:30",296998,0.602,106.8,17.87,0.134,10.83,104.6378,11.15,12.02,30.64,0,110.2,13.37,11.94,68.8
"2010-11-01 00:29:00",296999,0.548,82.7,9.22,0.177,11.25,104.6378,11.15,12.01,30.56,0,110.2,13.38,11.94,44.7
"2010-11-01 00:29:30",297000,0.486,80.3,17.46,0.795,12.24,104.6378,11.15,12.13,30.58,0,110.2,13.34,11.94,42.3
"2010-11-01 00:30:00",297001,1.814,43.02,23.64,1.285,14.95,104.6372,11.14,12.21,30.64,0,110.2,13.34,11.93,5.0
"2010-11-01 00:30:30",297002,1.1,345.7,26.66,0.96,12.71,104.6335,11.13,12.08,30.13,0,110.2,13.34,11.93,307.7
"2010-11-01 00:31:00",297003,0.68,26.09,11.85,0.256,10.97,104.6378,11.15,11.99,29.46,0,110.2,13.38,11.94,348.1
"2010-11-01 00:31:30",297004,0.581,12.16,16.35,0.143,10.87,104.6378,11.15,12.01,29.51,0,110.2,13.38,11.94,334.2
"2010-11-01 00:32:00",297005,0.944,359.4,5.247,0.198,11.06,104.6555,11.19,12.07,29.13,0,110.2,13.38,11.98,321.4
"2010-11-01 00:32:30",297006,1.608,18.09,13.16,1.494,13.36,104.6716,11.23,12.14,29.17,0,110.2,13.34,12.02,340.1
"2010-11-01 00:33:00",297007,0.53,41.29,8.73,0.116,10.85,104.6716,11.23,12.13,29.1,0,110.2,13.38,12.02,3.3
"2010-11-01 00:33:30",297008,0.292,85.6,11.65,0.112,10.88,104.6894,11.28,12.07,29,0,110.2,13.38,12.07,47.6
"2010-11-01 00:34:00",297009,0.423,63.77,8.89,0.126,10.77,104.7027,11.31,12.1,29.22,0,110.2,13.38,12.10,25.8
"2010-11-01 00:34:30",297010,1.221,67.84,12.34,1.156,12.76,104.7046,11.32,12.28,29.34,0,110.2,13.34,12.11,29.8
"2010-11-01 00:35:00",297011,0.885,62.6,12.75,1.007,11.68,104.7049,11.32,12.15,29.12,0,110.2,13.34,12.11,24.6
"2010-11-01 00:35:30",297012,0.261,39.92,8.31,0.09,11,104.7055,11.32,12.14,29.03,0,110.2,13.38,12.11,1.9
"2010-11-01 00:36:00",297013,0.135,48.32,8.82,0.076,10.99,104.7046,11.32,12.15,29.02,0,110.2,13.38,12.11,10.3
"2010-11-01 00:36:30",297014,0.096,57.21,7.429,0.051,11.15,104.6981,11.3,12.15,29,0,110.2,13.38,12.09,19.2
"2010-11-01 00:37:00",297015,0.089,73,7.302,0.055,11.46,104.701,11.31,12.16,29.02,0,110.2,13.38,12.10,35.0
"2010-11-01 00:37:30",297016,1.374,109.6,18.28,1.429,13.43,104.7027,11.31,12.31,29.31,0,110.2,13.34,12.10,71.6
"2010-11-01 00:38:00",297017,1.932,117.7,5.491,1.232,13.48,104.6804,11.25,12.35,30.1,0,110.2,13.34,12.05,79.7
"2010-11-01 00:38:30",297018,2.243,113.7,9.22,1.328,13.51,104.6734,11.24,12.29,29.62,0,110.2,13.34,12.03,75.7
"2010-11-01 00:39:00",297019,0.761,98.1,10.88,0.081,11.19,104.6758,11.24,12.14,29.46,0,110.2,13.38,12.03,60.1
"2010-11-01 00:39:30",297020,0.491,96.9,5.262,0.111,11.15,104.6769,11.25,12.15,29.63,0,110.2,13.38,12.04,58.9
"2010-11-01 00:40:00",297021,0.914,95.9,7.848,0.112,10.78,104.6805,11.25,12.13,29.52,0,110.2,13.38,12.05,57.9
"2010-11-01 00:40:30",297022,1.192,93.1,6.485,0.732,11.91,104.6829,11.26,12.26,29.42,0,110.2,13.34,12.05,55.1
"2010-11-01 00:41:00",297023,1.98,98.5,9.12,1.303,13.08,104.687,11.27,12.15,29.24,0,110.2,13.34,12.06,60.5
"2010-11-01 00:41:30",297024,1.769,90.4,15.22,1.219,12.69,104.6917,11.28,12.14,29.28,0,110.2,13.34,12.07,52.4
"2010-11-01 00:42:00",297025,1.788,83.5,9.97,0.86,11.51,104.6911,11.28,12.23,29.62,0,110.2,13.34,12.07,45.5
"2010-11-01 00:42:30",297026,2.86,86.4,14.27,1.55,13.59,104.6967,11.3,12.22,29.62,0,110.2,13.34,12.09,48.4
"2010-11-01 00:43:00",297027,1.241,88.6,10.98,0.288,11.21,104.6988,11.3,12.12,29.69,0,110.2,13.38,12.09,50.6
"2010-11-01 00:43:30",297028,3.148,112.9,13.86,1.276,13.66,104.6991,11.3,12.29,29.9,0,110.1,13.35,12.09,74.9
"2010-11-01 00:44:00",297029,3.77,129.5,10.42,1.171,14.76,104.6978,11.3,12.32,30.17,0,110.2,13.35,12.09,91.5
"2010-11-01 00:44:30",297030,2.658,112.3,11.69,1.281,13.12,104.6916,11.28,12.19,30.09,0,110.2,13.35,12.07,74.3
"2010-11-01 00:45:00",297031,1.933,84.6,9.81,0.19,11.31,104.692,11.28,12.11,29.96,0,110.2,13.39,12.08,46.6
"2010-11-01 00:45:30",297032,1.865,86.9,7.004,0.277,11.08,104.687,11.27,12.11,30.03,0,110.2,13.39,12.06,48.9
"2010-11-01 00:46:00",297033,3.338,95.4,12.4,1.426,13.29,104.6813,11.26,12.18,30.1,0,110.2,13.35,12.05,57.4
"2010-11-01 00:46:30",297034,2.699,108.7,7.566,0.913,12.47,104.6771,11.25,12.24,30.18,0,110.2,13.35,12.04,70.7
"2010-11-01 00:47:00",297035,3.408,113.2,14.66,1.361,14.65,104.6732,11.24,12.28,30.07,0,110.2,13.35,12.03,75.2
"2010-11-01 00:47:30",297036,1.989,123,5.696,0.744,11.49,104.6766,11.24,12.2,29.91,0,110.2,13.36,12.04,85.0
"2010-11-01 00:48:00",297037,2.107,104.4,7.931,0.667,11.72,104.6772,11.25,12.13,30.03,0,110.2,13.36,12.04,66.4
"2010-11-01 00:48:30",297038,1.524,113.4,3.705,0.131,11.09,104.6741,11.24,12.09,30.07,0,110.2,13.39,12.03,75.4
"2010-11-01 00:49:00",297039,2.704,126.6,8.7,1.376,13.7,104.6735,11.24,12.27,30.12,0,110.2,13.36,12.03,88.6
"2010-11-01 00:49:30",297040,2.618,126.5,7.699,1.385,13.93,104.6735,11.24,12.29,30.12,0,110.2,13.36,12.03,88.5
"2010-11-01 00:50:00",297041,1.233,103.3,7.926,0.392,11.15,104.6738,11.24,12.1,29.86,0,110.2,13.39,12.03,65.3
"2010-11-01 00:50:30",297042,1.906,93.5,9.11,0.276,10.89,104.6741,11.24,12.1,29.83,0,110.2,13.39,12.03,55.5
"2010-11-01 00:51:00",297043,1.841,93.1,7.186,0.157,10.86,104.6738,11.24,12.1,29.77,0,110.2,13.39,12.03,55.1
"2010-11-01 00:51:30",297044,2.213,77.04,4.182,0.1,11.16,104.6741,11.24,12.1,29.79,0,110.2,13.36,12.03,39.0
"2010-11-01 00:52:00",297045,3.257,86.8,4.961,1.346,13.76,104.6732,11.24,12.27,30.02,0,110.2,13.36,12.03,48.8
"2010-11-01 00:52:30",297046,2.979,85.7,10.5,1.432,13.13,104.6732,11.24,12.21,29.93,0,110.2,13.36,12.03,47.7
"2010-11-01 00:53:00",297047,2.247,104.2,9.44,1.412,13.68,104.6732,11.24,12.28,30.01,0,110.2,13.36,12.03,66.2
"2010-11-01 00:53:30",297048,1.329,105.6,4.392,0.517,11.42,104.6732,11.24,12.11,29.86,0,110.2,13.36,12.03,67.6
"2010-11-01 00:54:00",297049,1.583,93.8,8.51,0.222,11.12,104.6732,11.24,12.18,29.9,0,110.2,13.39,12.03,55.8
"2010-11-01 00:54:30",297050,3.535,130.8,15.18,1.316,14.9,104.6732,11.24,12.35,30.02,0,110.2,13.35,12.03,92.8
"2010-11-01 00:55:00",297051,2.732,110.6,9.78,1.321,13.81,104.6732,11.24,12.31,29.71,0,110.2,13.35,12.03,72.6
"2010-11-01 00:55:30",297052,1.47,81.6,8.59,0.984,11.76,104.6851,11.27,12.12,29.31,0,110.2,13.35,12.06,43.6
"2010-11-01 00:56:00",297053,0.883,39.49,19.97,0.124,10.61,104.6935,11.29,12.12,29.11,0,110.2,13.38,12.08,1.5
"2010-11-01 00:56:30",297054,1.109,8.45,6.481,0.186,10.85,104.6958,11.29,12.12,28.88,0,110.2,13.39,12.09,330.5
"2010-11-01 00:57:00",297055,1.545,21.61,7.398,0.216,11.1,104.6947,11.29,12.16,28.8,0,110.2,13.39,12.08,343.6
"2010-11-01 00:57:30",297056,2.948,37.88,7.183,1.361,13.38,104.6941,11.29,12.19,28.84,0,110.2,13.35,12.08,359.9
"2010-11-01 00:58:00",297057,2.608,29.35,8.81,1.292,13.91,104.6862,11.27,12.26,28.93,0,110.2,13.35,12.06,351.4
"2010-11-01 00:58:30",297058,1.406,36.17,10.22,0.895,11.81,104.6746,11.24,12.21,28.9,0,110.2,13.35,12.03,358.2
"2010-11-01 00:59:00",297059,2.602,42.83,6.772,1.391,13.68,104.6805,11.25,12.22,28.89,0,110.2,13.36,12.05,4.8
"2010-11-01 00:59:30",297060,0.59,35.85,10.57,0.247,11.24,104.6865,11.27,12.13,28.76,0,110.2,13.39,12.06,357.9
"2010-11-01 01:00:00",297061,1.406,61.76,11.74,1.384,13.44,104.6992,11.3,12.29,29.12,0,110.2,13.36,12.09,23.8
"2010-11-01 01:00:30",297062,1.076,42.27,9.99,1.204,12.32,104.7023,11.31,12.24,29.38,0,110.2,13.36,12.10,4.3
"2010-11-01 01:01:00",297063,1.441,81,18.18,1.205,13.37,104.7003,11.31,12.31,29.12,0,110.2,13.36,12.10,43.0
"2010-11-01 01:01:30",297064,0.533,90.4,17.49,0.1,10.97,104.7068,11.32,12.14,29,0,110.2,13.39,12.11,52.4
"2010-11-01 01:02:00",297065,1.032,150.5,9.25,0.352,10.4,104.7065,11.32,12.15,28.97,0,110.2,13.39,12.11,112.5
"2010-11-01 01:02:30",297066,1.75,146,3.71,0.212,10.54,104.7071,11.32,12.16,28.99,0,110.2,13.4,12.11,108.0
"2010-11-01 01:03:00",297067,1.913,148.3,4.722,0.101,10.87,104.7071,11.32,12.16,29.41,0,110.2,13.4,12.11,110.3
"2010-11-01 01:03:30",297068,2.102,148,10.18,1.022,13.1,104.7034,11.31,12.27,29.59,0,110.2,13.37,12.10,110.0
"2010-11-01 01:04:00",297069,1.23,143.2,9.85,1.029,12.6,104.6952,11.29,12.31,29.63,0,110.2,13.37,12.08,105.2
"2010-11-01 01:04:30",297070,1.984,134.4,4.884,1.054,12.82,104.691,11.28,12.17,29.5,0,110.2,13.36,12.07,96.4
"2010-11-01 01:05:00",297071,1.914,145.2,17.87,0.902,13.18,104.689,11.28,12.33,29.66,0,110.2,13.37,12.07,107.2
"2010-11-01 01:05:30",297072,2.068,177.7,7.275,1.037,12.68,104.6873,11.27,12.15,29.38,0,110.2,13.37,12.06,139.7
"2010-11-01 01:06:00",297073,1.425,169.1,5.632,0.203,11.57,104.6859,11.27,12.14,29.41,0,110.2,13.4,12.06,131.1
"2010-11-01 01:06:30",297074,3.787,171.7,9.1,1.347,14.2,104.682,11.26,12.4,29.66,0,110.2,13.37,12.05,133.7
"2010-11-01 01:07:00",297075,3.027,160.4,9.11,1.473,13.71,104.6794,11.25,12.33,29.64,0,110.2,13.37,12.04,122.4
"2010-11-01 01:07:30",297076,1.127,137.4,5.629,0.13,10.88,104.6763,11.24,12.16,29.42,0,110.2,13.4,12.04,99.4
"2010-11-01 01:08:00",297077,1.105,143.7,8.34,0.255,10.58,104.676,11.24,12.15,29.44,0,110.2,13.4,12.03,105.7
"2010-11-01 01:08:30",297078,0.831,134.8,17.75,0.102,10.83,104.6766,11.24,12.14,29.39,0,110.2,13.4,12.04,96.8
"2010-11-01 01:09:00",297079,1.763,128.5,13.1,1.07,11.74,104.6758,11.24,12.19,29.37,0,110.2,13.37,12.03,90.5
"2010-11-01 01:09:30",297080,2.047,147.9,9.8,1.037,12.25,104.678,11.25,12.23,29.44,0,110.2,13.37,12.04,109.9
"2010-11-01 01:10:00",297081,2.057,138.6,14.54,1.595,13.48,104.6781,11.25,12.23,29.39,0,110.2,13.37,12.04,100.6
"2010-11-01 01:10:30",297082,1.204,145.3,6.13,0.225,11.37,104.6755,11.24,12.15,29.34,0,110.2,13.4,12.03,107.3
"2010-11-01 01:11:00",297083,2.377,159.9,13.87,1.271,13.88,104.6766,11.24,12.33,29.48,0,110.2,13.36,12.04,121.9
"2010-11-01 01:11:30",297084,1.228,135.5,4.948,0.168,11.52,104.6769,11.25,12.25,29.37,0,110.2,13.4,12.04,97.5
"2010-11-01 01:12:00",297085,1.43,140.4,18.27,1.017,12.24,104.6815,11.26,12.14,29.27,0,110.2,13.36,12.05,102.4
"2010-11-01 01:12:30",297086,1.473,149,24.27,1.348,13.57,104.6772,11.25,12.33,29.43,0,110.2,13.36,12.04,111.0
"2010-11-01 01:13:00",297087,2.008,122.4,23.89,1.269,13.96,104.677,11.25,12.3,29.41,0,110.2,13.36,12.04,84.4
"2010-11-01 01:13:30",297088,0.841,114.8,12.18,0.176,10.93,104.677,11.25,12.17,29.35,0,110.2,13.39,12.04,76.8
"2010-11-01 01:14:00",297089,0.478,131.1,4.661,0.095,10.46,104.68,11.25,12.16,29.31,0,110.2,13.39,12.04,93.1
"2010-11-01 01:14:30",297090,0.832,120.9,9.39,0.257,10.47,104.68,11.25,12.16,29.27,0,110.2,13.39,12.04,82.9
"2010-11-01 01:15:00",297091,0.886,140,8.58,0.172,10.7,104.6815,11.26,12.16,29.26,0,110.2,13.39,12.05,102.0
"2010-11-01 01:15:30",297092,0.855,134.5,7.547,0.158,11.09,104.6838,11.26,12.16,29.21,0,110.2,13.4,12.05,96.5
"2010-11-01 01:16:00",297093,1.856,137.3,5.521,1.409,13.19,104.6858,11.27,12.29,29.25,0,110.2,13.37,12.06,99.3
"2010-11-01 01:16:30",297094,1.572,141.8,7.494,0.711,12.16,104.6915,11.28,12.29,29.26,0,110.2,13.41,12.07,103.8
"2010-11-01 01:17:00",297095,1.983,136,2.428,0.155,11.49,104.6972,11.3,12.17,29.13,0,110.2,13.41,12.09,98.0
"2010-11-01 01:17:30",297096,3.024,146.4,6.416,1.4,13.77,104.6987,11.3,12.34,29.28,0,110.2,13.37,12.09,108.4
"2010-11-01 01:18:00",297097,2.175,150.1,6.717,0.816,12.27,104.7043,11.32,12.29,29.22,0,110.2,13.37,12.11,112.1
"2010-11-01 01:18:30",297098,3.169,159.1,11.45,1.355,15.02,104.7012,11.31,12.34,29.26,0,110.2,13.37,12.10,121.1
"2010-11-01 01:19:00",297099,1.928,155.1,7.692,0.667,11.72,104.7064,11.32,12.29,29.19,0,110.2,13.37,12.11,117.1
"2010-11-01 01:19:30",297100,2.647,161.2,9.96,1.378,13.29,104.7132,11.34,12.29,29.17,0,110.2,13.37,12.13,123.2
"2010-11-01 01:20:00",297101,1.361,147.8,5.388,0.115,10.79,104.7133,11.34,12.19,29.08,0,110.2,13.41,12.13,109.8
"2010-11-01 01:20:30",297102,1.387,143.6,2.986,0.114,10.58,104.7141,11.34,12.18,29.08,0,110.2,13.41,12.13,105.6
"2010-11-01 01:21:00",297103,1.561,145.2,4.769,0.801,11.15,104.7198,11.36,12.18,28.98,0,110.2,13.37,12.15,107.2
"2010-11-01 01:21:30",297104,2.462,155.6,5.408,1.386,13.16,104.7267,11.37,12.33,29.09,0,110.2,13.37,12.16,117.6
"2010-11-01 01:22:00",297105,1.179,164.8,9.55,0.184,11.31,104.7301,11.38,12.19,28.88,0,110.2,13.41,12.17,126.8
"2010-11-01 01:22:30",297106,1.09,152.5,16.71,0.095,11.04,104.7293,11.38,12.2,28.93,0,110.2,13.41,12.17,114.5
"2010-11-01 01:23:00",297107,1.218,128.7,6.357,0.116,11.24,104.7275,11.38,12.19,28.95,0,110.2,13.41,12.17,90.7
"2010-11-01 01:23:30",297108,0.659,110.6,9.4,0.198,11.5,104.7313,11.38,12.19,28.93,0,110.2,13.41,12.18,72.6
"2010-11-01 01:24:00",297109,2.091,112.4,9.71,1.297,13.4,104.7316,11.39,12.35,29.09,0,110.2,13.37,12.18,74.4
"2010-11-01 01:24:30",297110,3.014,113.3,6.923,1.225,15.7,104.7319,11.39,12.44,29.17,0,110.2,13.37,12.18,75.3
"2010-11-01 01:25:00",297111,1.199,100.5,4.31,0.153,11.94,104.7343,11.39,12.21,28.95,0,110.2,13.41,12.18,62.5
"2010-11-01 01:25:30",297112,2.26,114.9,7.063,1.257,13.64,104.7331,11.39,12.39,29.09,0,110.2,13.37,12.18,76.9
"2010-11-01 01:26:00",297113,1.492,110.4,5.927,0.131,10.95,104.7343,11.39,12.21,28.9,0,110.2,13.41,12.18,72.4
"2010-11-01 01:26:30",297114,1.042,129.5,14.55,0.173,10.68,104.7369,11.4,12.22,28.87,0,110.2,13.41,12.19,91.5
"2010-11-01 01:27:00",297115,0.942,118.5,25.59,0.248,10.82,104.7369,11.4,12.2,28.81,0,110.2,13.41,12.19,80.5
"2010-11-01 01:27:30",297116,1.221,142.6,30.26,1.178,12.72,104.7358,11.4,12.37,29.01,0,110.2,13.37,12.19,104.6
"2010-11-01 01:28:00",297117,1.226,181,5.949,0.876,11.55,104.7358,11.4,12.27,28.93,0,110.2,13.37,12.19,143.0
"2010-11-01 01:28:30",297118,1.364,175.4,4.414,0.189,11.12,104.7363,11.4,12.21,28.89,0,110.2,13.41,12.19,137.4
"2010-11-01 01:29:00",297119,1.213,174.1,4.872,0.114,11.25,104.7369,11.4,12.21,28.87,0,110.2,13.4,12.19,136.1
"2010-11-01 01:29:30",297120,1.055,163.9,15.08,0.178,11.4,104.7369,11.4,12.21,28.84,0,110.2,13.41,12.19,125.9
"2010-11-01 01:30:00",297121,0.504,132.7,8.48,0.071,11.47,104.7369,11.4,12.23,28.82,0,110.2,13.41,12.19,94.7
"2010-11-01 01:30:30",297122,2.182,173.7,14.36,1.374,14.62,104.7396,11.41,12.42,29.05,0,110.2,13.37,12.20,135.7
"2010-11-01 01:31:00",297123,2.558,177.6,14.22,1.304,15.44,104.7384,11.4,12.51,29.07,0,110.2,13.37,12.19,139.6
"2010-11-01 01:31:30",297124,1.398,165.1,15.95,0.493,11.8,104.7396,11.41,12.24,28.76,0,110.2,13.37,12.20,127.1
"2010-11-01 01:32:00",297125,2.25,182.5,13.7,1.346,13.42,104.7414,11.41,12.4,28.9,0,110.2,13.37,12.20,144.5
"2010-11-01 01:32:30",297126,0.67,168.4,11.96,0.186,11,104.7387,11.4,12.34,28.83,0,110.2,13.41,12.20,130.4
"2010-11-01 01:33:00",297127,0.596,160.1,11.31,0.131,10.78,104.7402,11.41,12.22,28.73,0,110.2,13.41,12.20,122.1
"2010-11-01 01:33:30",297128,0.665,172.5,18.16,0.222,10.88,104.7417,11.41,12.3,28.78,0,110.2,13.41,12.20,134.5
"2010-11-01 01:34:00",297129,1.905,165.7,9.17,1.207,12.98,104.7408,11.41,12.33,28.79,0,110.2,13.37,12.20,127.7
"2010-11-01 01:34:30",297130,1.225,165.1,4.247,0.141,10.95,104.7414,11.41,12.3,28.81,0,110.2,13.41,12.20,127.1
"2010-11-01 01:35:00",297131,1.166,168.3,3.987,0.158,10.93,104.7405,11.41,12.25,28.75,0,110.2,13.41,12.20,130.3
"2010-11-01 01:35:30",297132,1.02,160.3,6.78,0.074,10.87,104.742,11.41,12.24,28.75,0,110.2,13.41,12.20,122.3
"2010-11-01 01:36:00",297133,0.828,161.2,3.723,0.122,11.28,104.7411,11.41,12.25,28.75,0,110.2,13.41,12.20,123.2
"2010-11-01 01:36:30",297134,0.678,157,4.859,0.052,12.01,104.7417,11.41,12.28,28.79,0,110.2,13.42,12.20,119.0
"2010-11-01 01:37:00",297135,1.768,166.1,8.63,1.342,13.62,104.7422,11.41,12.31,28.78,0,110.2,13.38,12.20,128.1
"2010-11-01 01:37:30",297136,1.881,165.9,7.164,1.359,14.7,104.7417,11.41,12.4,28.89,0,110.2,13.38,12.20,127.9
"2010-11-01 01:38:00",297137,0.798,147.3,11.08,1.131,12.39,104.7414,11.41,12.29,28.8,0,110.2,13.38,12.20,109.3
"2010-11-01 01:38:30",297138,1.154,126.6,14.35,1.243,13.72,104.7414,11.41,12.36,28.84,0,110.2,13.38,12.20,88.6
"2010-11-01 01:39:00",297139,0.051,122.6,14.24,0.051,11.42,104.7422,11.41,12.25,28.75,0,110.2,13.42,12.20,84.6
"2010-11-01 01:39:30",297140,0.533,138.6,11.35,1.036,12.63,104.742,11.41,12.43,28.91,0,110.2,13.38,12.20,100.6
"2010-11-01 01:40:00",297141,0.522,134.6,26.51,1.149,12.11,104.742,11.41,12.3,28.82,0,110.2,13.38,12.20,96.6
"2010-11-01 01:40:30",297142,-0.133,103.4,40.15,0.027,10.95,104.7422,11.41,12.25,28.76,0,110.2,13.42,12.20,65.4
"2010-11-01 01:41:00",297143,-0.047,152.5,13.8,0.486,11.01,104.742,11.41,12.25,28.76,0,110.2,13.38,12.20,114.5
"2010-11-01 01:41:30",297144,0.34,59.04,68.44,1.02,11.67,104.7422,11.41,12.38,28.91,0,110.2,13.38,12.20,21.0
"2010-11-01 01:42:00",297145,0.794,326.2,14.22,1.154,11.87,104.7417,11.41,12.25,28.78,0,110.2,13.38,12.20,288.2
"2010-11-01 01:42:30",297146,-0.003,17.82,45.53,0.099,10.24,104.742,11.41,12.24,28.81,0,110.2,13.42,12.20,339.8
"2010-11-01 01:43:00",297147,0.072,27.48,11.19,0.098,10.21,104.7391,11.4,12.23,28.82,0,110.2,13.42,12.20,349.5
"2010-11-01 01:43:30",297148,0.085,345.8,28.11,0.051,10.42,104.7287,11.38,12.22,28.83,0,110.2,13.41,12.17,307.8
"2010-11-01 01:44:00",297149,0.063,3.364,25.85,0.133,10.46,104.7231,11.36,12.22,28.85,0,110.2,13.41,12.16,325.4
"2010-11-01 01:44:30",297150,0.227,9.93,17.08,0.12,10.62,104.7098,11.33,12.21,28.85,0,110.2,13.41,12.12,331.9
"2010-11-01 01:45:00",297151,0.198,349.7,13.16,0.21,10.94,104.7087,11.33,12.19,28.88,0,110.2,13.41,12.12,311.7
"2010-11-01 01:45:30",297152,0.544,337.6,6.528,0.084,11.32,104.7087,11.33,12.21,28.96,0,110.2,13.41,12.12,299.6
"2010-11-01 01:46:00",297153,1.57,345.7,7.925,1.266,13.53,104.7112,11.33,12.35,29.14,0,110.2,13.38,12.12,307.7
"2010-11-01 01:46:30",297154,0.786,338.1,4.751,0.544,12.35,104.7197,11.36,12.31,29.1,0,110.2,13.37,12.15,300.1
"2010-11-01 01:47:00",297155,0.646,318.2,5.421,0.066,11.46,104.7239,11.37,12.21,28.89,0,110.2,13.41,12.16,280.2
"2010-11-01 01:47:30",297156,0.605,319.1,8.27,0.667,11.39,104.7256,11.37,12.2,28.88,0,110.2,13.37,12.16,281.1
"2010-11-01 01:48:00",297157,1.005,310.8,8.31,1.129,13.81,104.7262,11.37,12.39,29.06,0,110.2,13.37,12.16,272.8